TIME,�g�[�{�C���[-���� [L],�t���O,�����{�C���[-���� [L],�t���O,�g�[�{�C���[-���� [MJ/h],�t���O,�����{�C���[-���� [MJ/h],�t���O
2004/1/1 0:00,0.121394,0,0,1,17.8206392,0,0,1
2004/1/1 0:15,0.047495,0,0,1,6.972266,0,0,1
2004/1/1 0:30,0,0,0,1,0,0,0,1
2004/1/1 0:45,0,0,0,1,0,0,0,1
2004/1/1 1:00,0,0,0,1,0,0,0,1
2004/1/1 1:15,0,0,0,1,0,0,0,1
2004/1/1 1:30,0,0,0,1,0,0,0,1
2004/1/1 1:45,0,0,0,1,0,0,0,1
2004/1/1 2:00,0,0,0,1,0,0,0,1
2004/1/1 2:15,0,0,0,1,0,0,0,1
2004/1/1 2:30,0,0,0,1,0,0,0,1
2004/1/1 2:45,0,0,0,1,0,0,0,1
2004/1/1 3:00,0,0,0,1,0,0,0,1
2004/1/1 3:15,0,0,0,1,0,0,0,1
2004/1/1 3:30,0,0,0,1,0,0,0,1
2004/1/1 3:45,0,0,0,1,0,0,0,1
2004/1/1 4:00,0,0,0,1,0,0,0,1
2004/1/1 4:15,0,0,0,1,0,0,0,1
2004/1/1 4:30,0,0,0,1,0,0,0,1
2004/1/1 4:45,0,0,0,1,0,0,0,1
2004/1/1 5:00,0,0,0,1,0,0,0,1
2004/1/1 5:15,0,0,0,1,0,0,0,1
2004/1/1 5:30,0,0,0,1,0,0,0,1
2004/1/1 5:45,0,0,0,1,0,0,0,1
2004/1/1 6:00,0,0,0,1,0,0,0,1
2004/1/1 6:15,0.103845,0,0,1,15.244446,0,0,1
2004/1/1 6:30,0.085169,0,0,1,12.5028092,0,0,1
2004/1/1 6:45,0.081627,0,0,1,11.9828436,0,0,1
2004/1/1 7:00,0.080822,0,0,1,11.8646696,0,0,1
2004/1/1 7:15,0.079373,0,0,1,11.6519564,0,0,1
2004/1/1 7:30,0.086296,0,0,1,12.6682528,0,0,1
2004/1/1 7:45,0.075348,0,0,1,11.0610864,0,0,1
2004/1/1 8:00,0.076636,0,0,1,11.2501648,0,0,1
2004/1/1 8:15,0.080822,0,0,1,11.8646696,0,0,1
2004/1/1 8:30,0.076958,0,0,1,11.2974344,0,0,1
2004/1/1 8:45,0.037191,0,0,1,5.4596388,0,0,1
2004/1/1 9:00,0.009499,0,0,1,1.3944532,0,0,1
2004/1/1 9:15,0.021091,0,0,1,3.0961588,0,0,1
2004/1/1 9:30,0.016583,0,0,1,2.4343844,0,0,1
2004/1/1 9:45,0.014007,0,0,1,2.0562276,0,0,1
2004/1/1 10:00,0.013524,0,0,1,1.9853232,0,0,1
2004/1/1 10:15,0.05152,0,0,1,7.563136,0,0,1
2004/1/1 10:30,0.017388,0,0,1,2.5525584,0,0,1
2004/1/1 10:45,0,0,0,1,0,0,0,1
2004/1/1 11:00,0,0,0,1,0,0,0,1
2004/1/1 11:15,0,0,0,1,0,0,0,1
2004/1/1 11:30,0,0,0,1,0,0,0,1
2004/1/1 11:45,0,0,0,1,0,0,0,1
2004/1/1 12:00,0,0,0,1,0,0,0,1
2004/1/1 12:15,0,0,0,1,0,0,0,1
2004/1/1 12:30,0,0,0,1,0,0,0,1
2004/1/1 12:45,0,0,0,1,0,0,0,1
2004/1/1 13:00,0,0,0,1,0,0,0,1
2004/1/1 13:15,0,0,0,1,0,0,0,1
2004/1/1 13:30,0,0,0,1,0,0,0,1
2004/1/1 13:45,0,0,0,1,0,0,0,1
2004/1/1 14:00,0,0,0,1,0,0,0,1
2004/1/1 14:15,0,0,0,1,0,0,0,1
2004/1/1 14:30,0,0,0,1,0,0,0,1
2004/1/1 14:45,0,0,0,1,0,0,0,1
2004/1/1 15:00,0,0,0,1,0,0,0,1
2004/1/1 15:15,0,0,0,1,0,0,0,1
2004/1/1 15:30,0,0,0,1,0,0,0,1
2004/1/1 15:45,0,0,0,1,0,0,0,1
2004/1/1 16:00,0,0,0,1,0,0,0,1
2004/1/1 16:15,0,0,0,1,0,0,0,1
2004/1/1 16:30,0,0,0,1,0,0,0,1
2004/1/1 16:45,0,0,0,1,0,0,0,1
2004/1/1 17:00,0,0,0,1,0,0,0,1
2004/1/1 17:15,0,0,0,1,0,0,0,1
2004/1/1 17:30,0,0,0,1,0,0,0,1
2004/1/1 17:45,0,0,0,1,0,0,0,1
2004/1/1 18:00,0,0,0,1,0,0,0,1
2004/1/1 18:15,0,0,0,1,0,0,0,1
2004/1/1 18:30,0,0,0,1,0,0,0,1
2004/1/1 18:45,0,0,0,1,0,0,0,1
2004/1/1 19:00,0,0,0,1,0,0,0,1
2004/1/1 19:15,0,0,0,1,0,0,0,1
2004/1/1 19:30,0,0,0,1,0,0,0,1
2004/1/1 19:45,0,0,0,1,0,0,0,1
2004/1/1 20:00,0,0,0,1,0,0,0,1
2004/1/1 20:15,0,0,0,1,0,0,0,1
2004/1/1 20:30,0,0,0,1,0,0,0,1
2004/1/1 20:45,0,0,0,1,0,0,0,1
2004/1/1 21:00,0,0,0,1,0,0,0,1
2004/1/1 21:15,0,0,0,1,0,0,0,1
2004/1/1 21:30,0,0,0,1,0,0,0,1
2004/1/1 21:45,0.093541,0,0,1,13.7318188,0,0,1
2004/1/1 22:00,0.078246,0,0,1,11.4865128,0,0,1
2004/1/1 22:15,0.08855,0,0,1,12.99914,0,0,1
2004/1/1 22:30,0.078085,0,0,1,11.462878,0,0,1
2004/1/1 22:45,0.075509,0,0,1,11.0847212,0,0,1
2004/1/1 23:00,0.082593,0,0,1,12.1246524,0,0,1
2004/1/1 23:15,0.075026,0,0,1,11.0138168,0,0,1
2004/1/1 23:30,0.074221,0,0,1,10.8956428,0,0,1
2004/1/1 23:45,0.081949,0,0,1,12.0301132,0,0,1
2004/1/2 0:00,0.068586,0,0,1,10.0684248,0,0,1
2004/1/2 0:15,0.005957,0,0,1,0.8744876,0,0,1
2004/1/2 0:30,0,0,0,1,0,0,0,1
2004/1/2 0:45,0.000161,0,0,1,0.0236348,0,0,1
2004/1/2 1:00,0,0,0,1,0,0,0,1
2004/1/2 1:15,0,0,0,1,0,0,0,1
2004/1/2 1:30,0,0,0,1,0,0,0,1
2004/1/2 1:45,0,0,0,1,0,0,0,1
2004/1/2 2:00,0,0,0,1,0,0,0,1
2004/1/2 2:15,0,0,0,1,0,0,0,1
2004/1/2 2:30,0,0,0,1,0,0,0,1
2004/1/2 2:45,0,0,0,1,0,0,0,1
2004/1/2 3:00,0,0,0,1,0,0,0,1
2004/1/2 3:15,0,0,0,1,0,0,0,1
2004/1/2 3:30,0,0,0,1,0,0,0,1
2004/1/2 3:45,0,0,0,1,0,0,0,1
2004/1/2 4:00,0,0,0,1,0,0,0,1
2004/1/2 4:15,0,0,0,1,0,0,0,1
2004/1/2 4:30,0,0,0,1,0,0,0,1
2004/1/2 4:45,0,0,0,1,0,0,0,1
2004/1/2 5:00,0,0,0,1,0,0,0,1
2004/1/2 5:15,0,0,0,1,0,0,0,1
2004/1/2 5:30,0,0,0,1,0,0,0,1
2004/1/2 5:45,0,0,0,1,0,0,0,1
2004/1/2 6:00,0,0,0,1,0,0,0,1
2004/1/2 6:15,0.090965,0,0,1,13.353662,0,0,1
2004/1/2 6:30,0.082432,0,0,1,12.1010176,0,0,1
2004/1/2 6:45,0.083076,0,0,1,12.1955568,0,0,1
2004/1/2 7:00,0.015778,0,0,1,2.3162104,0,0,1
2004/1/2 7:15,0,0,0,1,0,0,0,1
2004/1/2 7:30,0,0,0,1,0,0,0,1
2004/1/2 7:45,0,0,0,1,0,0,0,1
2004/1/2 8:00,0,0,0,1,0,0,0,1
2004/1/2 8:15,0,0,0,1,0,0,0,1
2004/1/2 8:30,0,0,0,1,0,0,0,1
2004/1/2 8:45,0,0,0,1,0,0,0,1
2004/1/2 9:00,0,0,0,1,0,0,0,1
2004/1/2 9:15,0,0,0,1,0,0,0,1
2004/1/2 9:30,0,0,0,1,0,0,0,1
2004/1/2 9:45,0,0,0,1,0,0,0,1
2004/1/2 10:00,0,0,0,1,0,0,0,1
2004/1/2 10:15,0,0,0,1,0,0,0,1
2004/1/2 10:30,0,0,0,1,0,0,0,1
2004/1/2 10:45,0,0,0,1,0,0,0,1
2004/1/2 11:00,0,0,0,1,0,0,0,1
2004/1/2 11:15,0,0,0,1,0,0,0,1
2004/1/2 11:30,0,0,0,1,0,0,0,1
2004/1/2 11:45,0,0,0,1,0,0,0,1
2004/1/2 12:00,0,0,0,1,0,0,0,1
2004/1/2 12:15,0,0,0,1,0,0,0,1
2004/1/2 12:30,0,0,0,1,0,0,0,1
2004/1/2 12:45,0,0,0,1,0,0,0,1
2004/1/2 13:00,0,0,0,1,0,0,0,1
2004/1/2 13:15,0,0,0,1,0,0,0,1
2004/1/2 13:30,0,0,0,1,0,0,0,1
2004/1/2 13:45,0,0,0,1,0,0,0,1
2004/1/2 14:00,0,0,0,1,0,0,0,1
2004/1/2 14:15,0,0,0,1,0,0,0,1
2004/1/2 14:30,0,0,0,1,0,0,0,1
2004/1/2 14:45,0,0,0,1,0,0,0,1
2004/1/2 15:00,0,0,0,1,0,0,0,1
2004/1/2 15:15,0,0,0,1,0,0,0,1
2004/1/2 15:30,0,0,0,1,0,0,0,1
2004/1/2 15:45,0,0,0,1,0,0,0,1
2004/1/2 16:00,0,0,0,1,0,0,0,1
2004/1/2 16:15,0,0,0,1,0,0,0,1
2004/1/2 16:30,0,0,0,1,0,0,0,1
2004/1/2 16:45,0.081949,0,0,1,12.0301132,0,0,1
2004/1/2 17:00,0.088228,0,0,1,12.9518704,0,0,1
2004/1/2 17:15,0.084364,0,0,1,12.3846352,0,0,1
2004/1/2 17:30,0.084525,0,0,1,12.40827,0,0,1
2004/1/2 17:45,0.082593,0,0,1,12.1246524,0,0,1
2004/1/2 18:00,0.084364,0,0,1,12.3846352,0,0,1
2004/1/2 18:15,0.080339,0,0,1,11.7937652,0,0,1
2004/1/2 18:30,0.079695,0,0,1,11.699226,0,0,1
2004/1/2 18:45,0.085169,0,0,1,12.5028092,0,0,1
2004/1/2 19:00,0.081466,0,0,1,11.9592088,0,0,1
2004/1/2 19:15,0.080822,0,0,1,11.8646696,0,0,1
2004/1/2 19:30,0.080178,0,0,1,11.7701304,0,0,1
2004/1/2 19:45,0.038318,0,0,1,5.6250824,0,0,1
2004/1/2 20:00,0.024311,0,0,1,3.5688548,0,0,1
2004/1/2 20:15,0.079856,0,0,1,11.7228608,0,0,1
2004/1/2 20:30,0.079212,0,0,1,11.6283216,0,0,1
2004/1/2 20:45,0.082754,0,0,1,12.1482872,0,0,1
2004/1/2 21:00,0.075831,0,0,1,11.1319908,0,0,1
2004/1/2 21:15,0.082271,0,0,1,12.0773828,0,0,1
2004/1/2 21:30,0.075187,0,0,1,11.0374516,0,0,1
2004/1/2 21:45,0.076475,0,0,1,11.22653,0,0,1
2004/1/2 22:00,0.08211,0,0,1,12.053748,0,0,1
2004/1/2 22:15,0.076636,0,0,1,11.2501648,0,0,1
2004/1/2 22:30,0.07567,0,0,1,11.108356,0,0,1
2004/1/2 22:45,0.082754,0,0,1,12.1482872,0,0,1
2004/1/2 23:00,0.07728,0,0,1,11.344704,0,0,1
2004/1/2 23:15,0.079856,0,0,1,11.7228608,0,0,1
2004/1/2 23:30,0.072772,0,0,1,10.6829296,0,0,1
2004/1/2 23:45,0.000161,0,0,1,0.0236348,0,0,1
2004/1/3 0:00,0,0,0,1,0,0,0,1
2004/1/3 0:15,0,0,0,1,0,0,0,1
2004/1/3 0:30,0,0,0,1,0,0,0,1
2004/1/3 0:45,0,0,0,1,0,0,0,1
2004/1/3 1:00,0,0,0,1,0,0,0,1
2004/1/3 1:15,0,0,0,1,0,0,0,1
2004/1/3 1:30,0,0,0,1,0,0,0,1
2004/1/3 1:45,0,0,0,1,0,0,0,1
2004/1/3 2:00,0,0,0,1,0,0,0,1
2004/1/3 2:15,0,0,0,1,0,0,0,1
2004/1/3 2:30,0,0,0,1,0,0,0,1
2004/1/3 2:45,0,0,0,1,0,0,0,1
2004/1/3 3:00,0,0,0,1,0,0,0,1
2004/1/3 3:15,0,0,0,1,0,0,0,1
2004/1/3 3:30,0,0,0,1,0,0,0,1
2004/1/3 3:45,0,0,0,1,0,0,0,1
2004/1/3 4:00,0,0,0,1,0,0,0,1
2004/1/3 4:15,0,0,0,1,0,0,0,1
2004/1/3 4:30,0,0,0,1,0,0,0,1
2004/1/3 4:45,0,0,0,1,0,0,0,1
2004/1/3 5:00,0,0,0,1,0,0,0,1
2004/1/3 5:15,0,0,0,1,0,0,0,1
2004/1/3 5:30,0,0,0,1,0,0,0,1
2004/1/3 5:45,0,0,0,1,0,0,0,1
2004/1/3 6:00,0,0,0,1,0,0,0,1
2004/1/3 6:15,0.059731,0,0,1,8.7685108,0,0,1
2004/1/3 6:30,0.08533,0,0,1,12.526444,0,0,1
2004/1/3 6:45,0.085169,0,0,1,12.5028092,0,0,1
2004/1/3 7:00,0.0805,0,0,1,11.8174,0,0,1
2004/1/3 7:15,0.082593,0,0,1,12.1246524,0,0,1
2004/1/3 7:30,0.078246,0,0,1,11.4865128,0,0,1
2004/1/3 7:45,0.081144,0,0,1,11.9119392,0,0,1
2004/1/3 8:00,0.085974,0,0,1,12.6209832,0,0,1
2004/1/3 8:15,0.081466,0,0,1,11.9592088,0,0,1
2004/1/3 8:30,0.077763,0,0,1,11.4156084,0,0,1
2004/1/3 8:45,0.074221,0,0,1,10.8956428,0,0,1
2004/1/3 9:00,0.081788,0,0,1,12.0064784,0,0,1
2004/1/3 9:15,0.071806,0,0,1,10.5411208,0,0,1
2004/1/3 9:30,0.074865,0,0,1,10.990182,0,0,1
2004/1/3 9:45,0.075348,0,0,1,11.0610864,0,0,1
2004/1/3 10:00,0.049749,0,0,1,7.3031532,0,0,1
2004/1/3 10:15,0,0,0,1,0,0,0,1
2004/1/3 10:30,0,0,0,1,0,0,0,1
2004/1/3 10:45,0,0,0,1,0,0,0,1
2004/1/3 11:00,0,0,0,1,0,0,0,1
2004/1/3 11:15,0,0,0,1,0,0,0,1
2004/1/3 11:30,0,0,0,1,0,0,0,1
2004/1/3 11:45,0,0,0,1,0,0,0,1
2004/1/3 12:00,0,0,0,1,0,0,0,1
2004/1/3 12:15,0,0,0,1,0,0,0,1
2004/1/3 12:30,0,0,0,1,0,0,0,1
2004/1/3 12:45,0,0,0,1,0,0,0,1
2004/1/3 13:00,0,0,0,1,0,0,0,1
2004/1/3 13:15,0,0,0,1,0,0,0,1
2004/1/3 13:30,0,0,0,1,0,0,0,1
2004/1/3 13:45,0,0,0,1,0,0,0,1
2004/1/3 14:00,0,0,0,1,0,0,0,1
2004/1/3 14:15,0,0,0,1,0,0,0,1
2004/1/3 14:30,0,0,0,1,0,0,0,1
2004/1/3 14:45,0,0,0,1,0,0,0,1
2004/1/3 15:00,0,0,0,1,0,0,0,1
2004/1/3 15:15,0,0,0,1,0,0,0,1
2004/1/3 15:30,0,0,0,1,0,0,0,1
2004/1/3 15:45,0.088389,0,0,1,12.9755052,0,0,1
2004/1/3 16:00,0.0805,0,0,1,11.8174,0,0,1
2004/1/3 16:15,0.080983,0,0,1,11.8883044,0,0,1
2004/1/3 16:30,0.076153,0,0,1,11.1792604,0,0,1
2004/1/3 16:45,0.081949,0,0,1,12.0301132,0,0,1
2004/1/3 17:00,0.080178,0,0,1,11.7701304,0,0,1
2004/1/3 17:15,0.075509,0,0,1,11.0847212,0,0,1
2004/1/3 17:30,0.082271,0,0,1,12.0773828,0,0,1
2004/1/3 17:45,0.073577,0,0,1,10.8011036,0,0,1
2004/1/3 18:00,0.083076,0,0,1,12.1955568,0,0,1
2004/1/3 18:15,0.073899,0,0,1,10.8483732,0,0,1
2004/1/3 18:30,0.078407,0,0,1,11.5101476,0,0,1
2004/1/3 18:45,0.044758,0,0,1,6.5704744,0,0,1
2004/1/3 19:00,0.062307,0,0,1,9.1466676,0,0,1
2004/1/3 19:15,0.081466,0,0,1,11.9592088,0,0,1
2004/1/3 19:30,0.076797,0,0,1,11.2737996,0,0,1
2004/1/3 19:45,0.075992,0,0,1,11.1556256,0,0,1
2004/1/3 20:00,0.081788,0,0,1,12.0064784,0,0,1
2004/1/3 20:15,0.074221,0,0,1,10.8956428,0,0,1
2004/1/3 20:30,0.082593,0,0,1,12.1246524,0,0,1
2004/1/3 20:45,0.075992,0,0,1,11.1556256,0,0,1
2004/1/3 21:00,0.074704,0,0,1,10.9665472,0,0,1
2004/1/3 21:15,0.082754,0,0,1,12.1482872,0,0,1
2004/1/3 21:30,0.076475,0,0,1,11.22653,0,0,1
2004/1/3 21:45,0.074382,0,0,1,10.9192776,0,0,1
2004/1/3 22:00,0.081144,0,0,1,11.9119392,0,0,1
2004/1/3 22:15,0.068908,0,0,1,10.1156944,0,0,1
2004/1/3 22:30,0.067137,0,0,1,9.8557116,0,0,1
2004/1/3 22:45,0.011914,0,0,1,1.7489752,0,0,1
2004/1/3 23:00,0.059892,0,0,1,8.7921456,0,0,1
2004/1/3 23:15,0.077441,0,0,1,11.3683388,0,0,1
2004/1/3 23:30,0.077924,0,0,1,11.4392432,0,0,1
2004/1/3 23:45,0.078085,0,0,1,11.462878,0,0,1
2004/1/4 0:00,0.014007,0,0,1,2.0562276,0,0,1
2004/1/4 0:15,0,0,0,1,0,0,0,1
2004/1/4 0:30,0,0,0,1,0,0,0,1
2004/1/4 0:45,0,0,0,1,0,0,0,1
2004/1/4 1:00,0,0,0,1,0,0,0,1
2004/1/4 1:15,0,0,0,1,0,0,0,1
2004/1/4 1:30,0,0,0,1,0,0,0,1
2004/1/4 1:45,0,0,0,1,0,0,0,1
2004/1/4 2:00,0,0,0,1,0,0,0,1
2004/1/4 2:15,0,0,0,1,0,0,0,1
2004/1/4 2:30,0,0,0,1,0,0,0,1
2004/1/4 2:45,0,0,0,1,0,0,0,1
2004/1/4 3:00,0,0,0,1,0,0,0,1
2004/1/4 3:15,0,0,0,1,0,0,0,1
2004/1/4 3:30,0,0,0,1,0,0,0,1
2004/1/4 3:45,0,0,0,1,0,0,0,1
2004/1/4 4:00,0,0,0,1,0,0,0,1
2004/1/4 4:15,0,0,0,1,0,0,0,1
2004/1/4 4:30,0,0,0,1,0,0,0,1
2004/1/4 4:45,0,0,0,1,0,0,0,1
2004/1/4 5:00,0,0,0,1,0,0,0,1
2004/1/4 5:15,0,0,0,1,0,0,0,1
2004/1/4 5:30,0,0,0,1,0,0,0,1
2004/1/4 5:45,0,0,0,1,0,0,0,1
2004/1/4 6:00,0,0,0,1,0,0,0,1
2004/1/4 6:15,0.065366,0,0,1,9.5957288,0,0,1
2004/1/4 6:30,0.092736,0,0,1,13.6136448,0,0,1
2004/1/4 6:45,0.079695,0,0,1,11.699226,0,0,1
2004/1/4 7:00,0.086618,0,0,1,12.7155224,0,0,1
2004/1/4 7:15,0.081466,0,0,1,11.9592088,0,0,1
2004/1/4 7:30,0.084203,0,0,1,12.3610004,0,0,1
2004/1/4 7:45,0.081788,0,0,1,12.0064784,0,0,1
2004/1/4 8:00,0.081466,0,0,1,11.9592088,0,0,1
2004/1/4 8:15,0.082915,0,0,1,12.171922,0,0,1
2004/1/4 8:30,0.081144,0,0,1,11.9119392,0,0,1
2004/1/4 8:45,0.076475,0,0,1,11.22653,0,0,1
2004/1/4 9:00,0.079373,0,0,1,11.6519564,0,0,1
2004/1/4 9:15,0.08211,0,0,1,12.053748,0,0,1
2004/1/4 9:30,0.075348,0,0,1,11.0610864,0,0,1
2004/1/4 9:45,0.025116,0,0,1,3.6870288,0,0,1
2004/1/4 10:00,0.074865,0,0,1,10.990182,0,0,1
2004/1/4 10:15,0.078407,0,0,1,11.5101476,0,0,1
2004/1/4 10:30,0.079534,0,0,1,11.6755912,0,0,1
2004/1/4 10:45,0.076475,0,0,1,11.22653,0,0,1
2004/1/4 11:00,0.074221,0,0,1,10.8956428,0,0,1
2004/1/4 11:15,0.000161,0,0,1,0.0236348,0,0,1
2004/1/4 11:30,0,0,0,1,0,0,0,1
2004/1/4 11:45,0,0,0,1,0,0,0,1
2004/1/4 12:00,0,0,0,1,0,0,0,1
2004/1/4 12:15,0,0,0,1,0,0,0,1
2004/1/4 12:30,0,0,0,1,0,0,0,1
2004/1/4 12:45,0,0,0,1,0,0,0,1
2004/1/4 13:00,0,0,0,1,0,0,0,1
2004/1/4 13:15,0.027853,0,0,1,4.0888204,0,0,1
2004/1/4 13:30,0.089033,0,0,1,13.0700444,0,0,1
2004/1/4 13:45,0.076797,0,0,1,11.2737996,0,0,1
2004/1/4 14:00,0.081949,0,0,1,12.0301132,0,0,1
2004/1/4 14:15,0.076636,0,0,1,11.2501648,0,0,1
2004/1/4 14:30,0.073738,0,0,1,10.8247384,0,0,1
2004/1/4 14:45,0.078407,0,0,1,11.5101476,0,0,1
2004/1/4 15:00,0.076636,0,0,1,11.2501648,0,0,1
2004/1/4 15:15,0.079373,0,0,1,11.6519564,0,0,1
2004/1/4 15:30,0.076636,0,0,1,11.2501648,0,0,1
2004/1/4 15:45,0.074221,0,0,1,10.8956428,0,0,1
2004/1/4 16:00,0.08372,0,0,1,12.290096,0,0,1
2004/1/4 16:15,0.081466,0,0,1,11.9592088,0,0,1
2004/1/4 16:30,0.080661,0,0,1,11.8410348,0,0,1
2004/1/4 16:45,0.079534,0,0,1,11.6755912,0,0,1
2004/1/4 17:00,0.078407,0,0,1,11.5101476,0,0,1
2004/1/4 17:15,0.078729,0,0,1,11.5574172,0,0,1
2004/1/4 17:30,0.083076,0,0,1,12.1955568,0,0,1
2004/1/4 17:45,0.080339,0,0,1,11.7937652,0,0,1
2004/1/4 18:00,0.080983,0,0,1,11.8883044,0,0,1
2004/1/4 18:15,0.081466,0,0,1,11.9592088,0,0,1
2004/1/4 18:30,0.078568,0,0,1,11.5337824,0,0,1
2004/1/4 18:45,0.077441,0,0,1,11.3683388,0,0,1
2004/1/4 19:00,0.083398,0,0,1,12.2428264,0,0,1
2004/1/4 19:15,0.079695,0,0,1,11.699226,0,0,1
2004/1/4 19:30,0.07889,0,0,1,11.581052,0,0,1
2004/1/4 19:45,0.052486,0,0,1,7.7049448,0,0,1
2004/1/4 20:00,0.011592,0,0,1,1.7017056,0,0,1
2004/1/4 20:15,0.016422,0,0,1,2.4107496,0,0,1
2004/1/4 20:30,0.010948,0,0,1,1.6071664,0,0,1
2004/1/4 20:45,0.016422,0,0,1,2.4107496,0,0,1
2004/1/4 21:00,0.017066,0,0,1,2.5052888,0,0,1
2004/1/4 21:15,0.073094,0,0,1,10.7301992,0,0,1
2004/1/4 21:30,0.078246,0,0,1,11.4865128,0,0,1
2004/1/4 21:45,0.082754,0,0,1,12.1482872,0,0,1
2004/1/4 22:00,0.05796,0,0,1,8.508528,0,0,1
2004/1/4 22:15,0.078246,0,0,1,11.4865128,0,0,1
2004/1/4 22:30,0.08211,0,0,1,12.053748,0,0,1
2004/1/4 22:45,0.081144,0,0,1,11.9119392,0,0,1
2004/1/4 23:00,0.080661,0,0,1,11.8410348,0,0,1
2004/1/4 23:15,0.081144,0,0,1,11.9119392,0,0,1
2004/1/4 23:30,0.007728,0,0,1,1.1344704,0,0,1
2004/1/4 23:45,0,0,0,1,0,0,0,1
2004/1/5 0:00,0,0,0,1,0,0,0,1
2004/1/5 0:15,0,0,0,1,0,0,0,1
2004/1/5 0:30,0,0,0,1,0,0,0,1
2004/1/5 0:45,0.000161,0,0,1,0.0236348,0,0,1
2004/1/5 1:00,0,0,0,1,0,0,0,1
2004/1/5 1:15,0,0,0,1,0,0,0,1
2004/1/5 1:30,0,0,0,1,0,0,0,1
2004/1/5 1:45,0,0,0,1,0,0,0,1
2004/1/5 2:00,0,0,0,1,0,0,0,1
2004/1/5 2:15,0,0,0,1,0,0,0,1
2004/1/5 2:30,0,0,0,1,0,0,0,1
2004/1/5 2:45,0,0,0,1,0,0,0,1
2004/1/5 3:00,0,0,0,1,0,0,0,1
2004/1/5 3:15,0,0,0,1,0,0,0,1
2004/1/5 3:30,0,0,0,1,0,0,0,1
2004/1/5 3:45,0,0,0,1,0,0,0,1
2004/1/5 4:00,0,0,0,1,0,0,0,1
2004/1/5 4:15,0,0,0,1,0,0,0,1
2004/1/5 4:30,0,0,0,1,0,0,0,1
2004/1/5 4:45,0,0,0,1,0,0,0,1
2004/1/5 5:00,0,0,0,1,0,0,0,1
2004/1/5 5:15,0,0,0,1,0,0,0,1
2004/1/5 5:30,0,0,0,1,0,0,0,1
2004/1/5 5:45,0,0,0,1,0,0,0,1
2004/1/5 6:00,0,0,0,1,0,0,0,1
2004/1/5 6:15,0.075992,0,0,1,11.1556256,0,0,1
2004/1/5 6:30,0.087745,0,0,1,12.880966,0,0,1
2004/1/5 6:45,0.086779,0,0,1,12.7391572,0,0,1
2004/1/5 7:00,0.086618,0,0,1,12.7155224,0,0,1
2004/1/5 7:15,0.084686,0,0,1,12.4319048,0,0,1
2004/1/5 7:30,0.082593,0,0,1,12.1246524,0,0,1
2004/1/5 7:45,0.085008,0,0,1,12.4791744,0,0,1
2004/1/5 8:00,0.083559,0,0,1,12.2664612,0,0,1
2004/1/5 8:15,0.081144,0,0,1,11.9119392,0,0,1
2004/1/5 8:30,0.082754,0,0,1,12.1482872,0,0,1
2004/1/5 8:45,0.081627,0,0,1,11.9828436,0,0,1
2004/1/5 9:00,0.080983,0,0,1,11.8883044,0,0,1
2004/1/5 9:15,0.081144,0,0,1,11.9119392,0,0,1
2004/1/5 9:30,0.017388,0,0,1,2.5525584,0,0,1
2004/1/5 9:45,0,0,0,1,0,0,0,1
2004/1/5 10:00,0,0,0,1,0,0,0,1
2004/1/5 10:15,0,0,0,1,0,0,0,1
2004/1/5 10:30,0,0,0,1,0,0,0,1
2004/1/5 10:45,0,0,0,1,0,0,0,1
2004/1/5 11:00,0,0,0,1,0,0,0,1
2004/1/5 11:15,0,0,0,1,0,0,0,1
2004/1/5 11:30,0,0,0,1,0,0,0,1
2004/1/5 11:45,0,0,0,1,0,0,0,1
2004/1/5 12:00,0,0,0,1,0,0,0,1
2004/1/5 12:15,0,0,0,1,0,0,0,1
2004/1/5 12:30,0,0,0,1,0,0,0,1
2004/1/5 12:45,0,0,0,1,0,0,0,1
2004/1/5 13:00,0,0,0,1,0,0,0,1
2004/1/5 13:15,0,0,0,1,0,0,0,1
2004/1/5 13:30,0,0,0,1,0,0,0,1
2004/1/5 13:45,0,0,0,1,0,0,0,1
2004/1/5 14:00,0,0,0,1,0,0,0,1
2004/1/5 14:15,0,0,0,1,0,0,0,1
2004/1/5 14:30,0,0,0,1,0,0,0,1
2004/1/5 14:45,0,0,0,1,0,0,0,1
2004/1/5 15:00,0,0,0,1,0,0,0,1
2004/1/5 15:15,0,0,0,1,0,0,0,1
2004/1/5 15:30,0,0,0,1,0,0,0,1
2004/1/5 15:45,0,0,0,1,0,0,0,1
2004/1/5 16:00,0,0,0,1,0,0,0,1
2004/1/5 16:15,0.089516,0,0,1,13.1409488,0,0,1
2004/1/5 16:30,0.084042,0,0,1,12.3373656,0,0,1
2004/1/5 16:45,0.085169,0,0,1,12.5028092,0,0,1
2004/1/5 17:00,0.085008,0,0,1,12.4791744,0,0,1
2004/1/5 17:15,0.080339,0,0,1,11.7937652,0,0,1
2004/1/5 17:30,0.080339,0,0,1,11.7937652,0,0,1
2004/1/5 17:45,0.085169,0,0,1,12.5028092,0,0,1
2004/1/5 18:00,0.081305,0,0,1,11.935574,0,0,1
2004/1/5 18:15,0.079534,0,0,1,11.6755912,0,0,1
2004/1/5 18:30,0.08211,0,0,1,12.053748,0,0,1
2004/1/5 18:45,0.08372,0,0,1,12.290096,0,0,1
2004/1/5 19:00,0.081627,0,0,1,11.9828436,0,0,1
2004/1/5 19:15,0.080661,0,0,1,11.8410348,0,0,1
2004/1/5 19:30,0.079212,0,0,1,11.6283216,0,0,1
2004/1/5 19:45,0.082271,0,0,1,12.0773828,0,0,1
2004/1/5 20:00,0.078085,0,0,1,11.462878,0,0,1
2004/1/5 20:15,0.080178,0,0,1,11.7701304,0,0,1
2004/1/5 20:30,0.078568,0,0,1,11.5337824,0,0,1
2004/1/5 20:45,0.058604,0,0,1,8.6030672,0,0,1
2004/1/5 21:00,0.05152,0,0,1,7.563136,0,0,1
2004/1/5 21:15,0.0805,0,0,1,11.8174,0,0,1
2004/1/5 21:30,0.017549,0,0,1,2.5761932,0,0,1
2004/1/5 21:45,0,0,0,1,0,0,0,1
2004/1/5 22:00,0,0,0,1,0,0,0,1
2004/1/5 22:15,0,0,0,1,0,0,0,1
2004/1/5 22:30,0,0,0,1,0,0,0,1
2004/1/5 22:45,0,0,0,1,0,0,0,1
2004/1/5 23:00,0,0,0,1,0,0,0,1
2004/1/5 23:15,0,0,0,1,0,0,0,1
2004/1/5 23:30,0,0,0,1,0,0,0,1
2004/1/5 23:45,0,0,0,1,0,0,0,1
2004/1/6 0:00,0,0,0,1,0,0,0,1
2004/1/6 0:15,0,0,0,1,0,0,0,1
2004/1/6 0:30,0,0,0,1,0,0,0,1
2004/1/6 0:45,0,0,0,1,0,0,0,1
2004/1/6 1:00,0,0,0,1,0,0,0,1
2004/1/6 1:15,0,0,0,1,0,0,0,1
2004/1/6 1:30,0,0,0,1,0,0,0,1
2004/1/6 1:45,0,0,0,1,0,0,0,1
2004/1/6 2:00,0,0,0,1,0,0,0,1
2004/1/6 2:15,0,0,0,1,0,0,0,1
2004/1/6 2:30,0,0,0,1,0,0,0,1
2004/1/6 2:45,0,0,0,1,0,0,0,1
2004/1/6 3:00,0,0,0,1,0,0,0,1
2004/1/6 3:15,0,0,0,1,0,0,0,1
2004/1/6 3:30,0,0,0,1,0,0,0,1
2004/1/6 3:45,0,0,0,1,0,0,0,1
2004/1/6 4:00,0,0,0,1,0,0,0,1
2004/1/6 4:15,0,0,0,1,0,0,0,1
2004/1/6 4:30,0,0,0,1,0,0,0,1
2004/1/6 4:45,0,0,0,1,0,0,0,1
2004/1/6 5:00,0,0,0,1,0,0,0,1
2004/1/6 5:15,0,0,0,1,0,0,0,1
2004/1/6 5:30,0,0,0,1,0,0,0,1
2004/1/6 5:45,0,0,0,1,0,0,0,1
2004/1/6 6:00,0,0,0,1,0,0,0,1
2004/1/6 6:15,0.072611,0,0,1,10.6592948,0,0,1
2004/1/6 6:30,0.091448,0,0,1,13.4245664,0,0,1
2004/1/6 6:45,0.085652,0,0,1,12.5737136,0,0,1
2004/1/6 7:00,0.08694,0,0,1,12.762792,0,0,1
2004/1/6 7:15,0.084847,0,0,1,12.4555396,0,0,1
2004/1/6 7:30,0.084042,0,0,1,12.3373656,0,0,1
2004/1/6 7:45,0.08372,0,0,1,12.290096,0,0,1
2004/1/6 8:00,0.086296,0,0,1,12.6682528,0,0,1
2004/1/6 8:15,0.083881,0,0,1,12.3137308,0,0,1
2004/1/6 8:30,0.079856,0,0,1,11.7228608,0,0,1
2004/1/6 8:45,0.056189,0,0,1,8.2485452,0,0,1
2004/1/6 9:00,0,0,0,1,0,0,0,1
2004/1/6 9:15,0,0,0,1,0,0,0,1
2004/1/6 9:30,0,0,0,1,0,0,0,1
2004/1/6 9:45,0,0,0,1,0,0,0,1
2004/1/6 10:00,0,0,0,1,0,0,0,1
2004/1/6 10:15,0,0,0,1,0,0,0,1
2004/1/6 10:30,0,0,0,1,0,0,0,1
2004/1/6 10:45,0,0,0,1,0,0,0,1
2004/1/6 11:00,0,0,0,1,0,0,0,1
2004/1/6 11:15,0,0,0,1,0,0,0,1
2004/1/6 11:30,0,0,0,1,0,0,0,1
2004/1/6 11:45,0,0,0,1,0,0,0,1
2004/1/6 12:00,0,0,0,1,0,0,0,1
2004/1/6 12:15,0,0,0,1,0,0,0,1
2004/1/6 12:30,0.101108,0,0,1,14.8426544,0,0,1
2004/1/6 12:45,0.087101,0,0,1,12.7864268,0,0,1
2004/1/6 13:00,0.084364,0,0,1,12.3846352,0,0,1
2004/1/6 13:15,0.082593,0,0,1,12.1246524,0,0,1
2004/1/6 13:30,0.084686,0,0,1,12.4319048,0,0,1
2004/1/6 13:45,0.084686,0,0,1,12.4319048,0,0,1
2004/1/6 14:00,0.016583,0,0,1,2.4343844,0,0,1
2004/1/6 14:15,0.011109,0,0,1,1.6308012,0,0,1
2004/1/6 14:30,0.016261,0,0,1,2.3871148,0,0,1
2004/1/6 14:45,0.013363,0,0,1,1.9616884,0,0,1
2004/1/6 15:00,0.059731,0,0,1,8.7685108,0,0,1
2004/1/6 15:15,0.084042,0,0,1,12.3373656,0,0,1
2004/1/6 15:30,0.084203,0,0,1,12.3610004,0,0,1
2004/1/6 15:45,0.084364,0,0,1,12.3846352,0,0,1
2004/1/6 16:00,0.032844,0,0,1,4.8214992,0,0,1
2004/1/6 16:15,0.014651,0,0,1,2.1507668,0,0,1
2004/1/6 16:30,0.01288,0,0,1,1.890784,0,0,1
2004/1/6 16:45,0.016422,0,0,1,2.4107496,0,0,1
2004/1/6 17:00,0.01288,0,0,1,1.890784,0,0,1
2004/1/6 17:15,0.064722,0,0,1,9.5011896,0,0,1
2004/1/6 17:30,0.084686,0,0,1,12.4319048,0,0,1
2004/1/6 17:45,0.057799,0,0,1,8.4848932,0,0,1
2004/1/6 18:00,0.083398,0,0,1,12.2428264,0,0,1
2004/1/6 18:15,0.069069,0,0,1,10.1393292,0,0,1
2004/1/6 18:30,0.011914,0,0,1,1.7489752,0,0,1
2004/1/6 18:45,0,0,0,1,0,0,0,1
2004/1/6 19:00,0,0,0,1,0,0,0,1
2004/1/6 19:15,0,0,0,1,0,0,0,1
2004/1/6 19:30,0,0,0,1,0,0,0,1
2004/1/6 19:45,0,0,0,1,0,0,0,1
2004/1/6 20:00,0,0,0,1,0,0,0,1
2004/1/6 20:15,0,0,0,1,0,0,0,1
2004/1/6 20:30,0,0,0,1,0,0,0,1
2004/1/6 20:45,0,0,0,1,0,0,0,1
2004/1/6 21:00,0,0,0,1,0,0,0,1
2004/1/6 21:15,0,0,0,1,0,0,0,1
2004/1/6 21:30,0,0,0,1,0,0,0,1
2004/1/6 21:45,0,0,0,1,0,0,0,1
2004/1/6 22:00,0,0,0,1,0,0,0,1
2004/1/6 22:15,0,0,0,1,0,0,0,1
2004/1/6 22:30,0.112056,0,0,1,16.4498208,0,0,1
2004/1/6 22:45,0.087101,0,0,1,12.7864268,0,0,1
2004/1/6 23:00,0.086618,0,0,1,12.7155224,0,0,1
2004/1/6 23:15,0.086457,0,0,1,12.6918876,0,0,1
2004/1/6 23:30,0.086457,0,0,1,12.6918876,0,0,1
2004/1/6 23:45,0.086779,0,0,1,12.7391572,0,0,1
2004/1/7 0:00,0.084203,0,0,1,12.3610004,0,0,1
2004/1/7 0:15,0.086296,0,0,1,12.6682528,0,0,1
2004/1/7 0:30,0.084203,0,0,1,12.3610004,0,0,1
2004/1/7 0:45,0.016583,0,0,1,2.4343844,0,0,1
2004/1/7 1:00,0,0,0,1,0,0,0,1
2004/1/7 1:15,0,0,0,1,0,0,0,1
2004/1/7 1:30,0,0,0,1,0,0,0,1
2004/1/7 1:45,0,0,0,1,0,0,0,1
2004/1/7 2:00,0,0,0,1,0,0,0,1
2004/1/7 2:15,0,0,0,1,0,0,0,1
2004/1/7 2:30,0,0,0,1,0,0,0,1
2004/1/7 2:45,0,0,0,1,0,0,0,1
2004/1/7 3:00,0,0,0,1,0,0,0,1
2004/1/7 3:15,0,0,0,1,0,0,0,1
2004/1/7 3:30,0,0,0,1,0,0,0,1
2004/1/7 3:45,0,0,0,1,0,0,0,1
2004/1/7 4:00,0,0,0,1,0,0,0,1
2004/1/7 4:15,0,0,0,1,0,0,0,1
2004/1/7 4:30,0,0,0,1,0,0,0,1
2004/1/7 4:45,0.041055,0,0,1,6.026874,0,0,1
2004/1/7 5:00,0.096117,0,0,1,14.1099756,0,0,1
2004/1/7 5:15,0.087101,0,0,1,12.7864268,0,0,1
2004/1/7 5:30,0.086779,0,0,1,12.7391572,0,0,1
2004/1/7 5:45,0.086779,0,0,1,12.7391572,0,0,1
2004/1/7 6:00,0.086779,0,0,1,12.7391572,0,0,1
2004/1/7 6:15,0.086779,0,0,1,12.7391572,0,0,1
2004/1/7 6:30,0.086779,0,0,1,12.7391572,0,0,1
2004/1/7 6:45,0.086779,0,0,1,12.7391572,0,0,1
2004/1/7 7:00,0.086779,0,0,1,12.7391572,0,0,1
2004/1/7 7:15,0.08694,0,0,1,12.762792,0,0,1
2004/1/7 7:30,0.083559,0,0,1,12.2664612,0,0,1
2004/1/7 7:45,0.087584,0,0,1,12.8573312,0,0,1
2004/1/7 8:00,0.089999,0,0,1,13.2118532,0,0,1
2004/1/7 8:15,0.080339,0,0,1,11.7937652,0,0,1
2004/1/7 8:30,0.075026,0,0,1,11.0138168,0,0,1
2004/1/7 8:45,0.032844,0,0,1,4.8214992,0,0,1
2004/1/7 9:00,0,0,0,1,0,0,0,1
2004/1/7 9:15,0,0,0,1,0,0,0,1
2004/1/7 9:30,0,0,0,1,0,0,0,1
2004/1/7 9:45,0,0,0,1,0,0,0,1
2004/1/7 10:00,0,0,0,1,0,0,0,1
2004/1/7 10:15,0,0,0,1,0,0,0,1
2004/1/7 10:30,0,0,0,1,0,0,0,1
2004/1/7 10:45,0,0,0,1,0,0,0,1